RH
14 17 22 25 27 33 29 35 38 59 92 64 63 72 84 85 94 99 89 99 100 98 100 100 99 100 96 87 84 87 89 89 84 77 72 71 71 71 71 74 80 81 90 90 87 92 96 94 66
14 21 21 24 30 34 32 31 62 75 61 46 44 45 52 76 79 86 91 98 92 99 100 99 100 100 98 96 94 88 86 83 82 78 76 73 72 72 72 70 69 75 86 94 98 99 98 74 74
17 26 25 27 37 43 34 38 34 46 49 60 48 48 60 78 72 87 78 93 86 81 94 100 100 100 98 100 96 91 83 81 81 76 74 75 74 75 75 73 69 68 70 89 96 99 93 87 88
17 20 20 30 41 40 38 39 38 37 39 44 45 61 59 68 67 68 74 79 72 75 74 92 99 100 99 100 100 96 83 80 78 77 73 74 74 73 68 69 71 74 77 56 72 88 88 88 88
18 19 30 40 40 36 34 32 37 40 41 45 46 73 74 75 72 62 62 58 60 62 64 69 89 97 97 88 87 100 90 82 77 73 73 74 73 71 71 71 75 76 82 83 60 79 83 88 89
18 21 36 50 42 34 32 30 30 34 34 34 37 39 40 37 60 62 48 52 54 61 55 55 58 83 95 98 78 79 93 91 81 76 74 76 75 73 72 72 71 77 81 75 52 67 84 91 87
20 31 40 46 43 38 32 28 31 31 32 36 32 42 37 33 33 44 46 46 51 61 54 49 50 63 81 87 97 99 93 91 82 82 79 77 74 73 75 75 66 61 65 60 57 57 80 89 86
17 19 19 33 42 41 29 28 26 31 38 27 30 45 46 33 34 39 43 46 50 55 56 53 57 59 70 79 87 95 98 100 82 80 83 80 75 75 84 76 66 64 60 67 60 55 75 87 88
15 27 30 28 37 35 27 31 25 26 32 32 31 33 30 31 35 39 44 47 49 52 48 50 59 62 60 72 80 89 98 100 100 92 79 86 82 77 80 78 66 56 43 45 60 64 71 82 82
21 33 35 30 30 32 30 31 28 29 32 32 30 28 29 31 34 38 44 48 51 51 52 57 56 66 58 58 73 78 89 100 100 98 100 89 88 82 82 79 70 54 50 62 66 54 61 82 80
18 36 30 29 28 28 30 30 27 30 36 32 34 32 30 31 34 38 43 46 49 52 52 58 59 62 66 64 62 72 79 93 99 100 99 100 96 88 84 81 78 71 69 75 82 68 74 84 80
27 26 30 29 28 27 28 25 28 30 32 28 29 29 30 32 34 36 42 45 48 50 51 56 61 60 66 62 67 73 82 90 96 100 99 100 100 99 88 81 85 80 72 74 72 71 82 84 79
29 28 26 24 24 25 24 28 29 30 26 25 26 28 30 32 35 37 41 44 48 50 51 55 53 56 66 63 59 64 81 89 94 100 99 100 100 100 99 98 95 91 85 83 76 74 83 86 79
12 18 24 26 26 26 28 29 26 27 24 25 26 30 30 32 33 36 41 44 47 48 49 53 55 50 58 61 60 64 76 87 94 97 100 100 100 100 100 100 99 100 94 88 86 84 70 89 81
8 11 11 11 18 27 26 33 32 27 24 27 29 30 31 32 30 34 36 39 43 46 43 49 54 50 52 63 63 66 70 81 92 90 96 100 99 100 100 100 100 99 99 92 91 84 78 83 88
11 12 14 11 11 21 27 42 29 27 28 32 30 30 32 31 32 30 28 28 30 33 35 36 49 51 51 55 64 67 66 70 86 88 93 93 99 100 100 100 100 100 98 99 99 94 89 84 87
17 18 17 16 15 21 34 39 28 26 28 32 33 32 29 31 27 30 30 28 27 29 30 32 39 53 50 53 58 67 66 68 72 85 90 92 97 100 100 100 100 99 100 100 100 100 97 88 92
18 18 20 19 16 36 40 38 29 27 30 30 30 30 30 30 28 30 29 30 28 28 28 28 32 51 50 49 55 61 67 68 70 74 86 89 93 100 100 100 99 100 99 100 100 98 100 98 95
20 21 22 20 18 31 38 37 30 26 28 28 27 28 27 27 26 27 30 28 28 28 28 27 29 47 54 51 57 60 69 67 72 71 79 83 93 96 100 100 100 98 100 98 99 100 100 98 100
22 23 26 23 33 35 42 47 37 27 27 27 27 27 26 27 27 26 30 30 30 31 29 28 28 42 55 52 50 60 66 67 68 72 78 80 85 95 100 100 99 99 100 100 100 99 100 100 97
20 24 26 30 41 43 45 51 67 46 24 25 26 26 27 28 27 27 28 31 32 33 31 29 28 37 53 52 52 60 66 69 69 68 74 79 80 88 94 97 100 100 99 100 100 99 100 97 100
16 20 22 30 37 43 43 75 67 67 34 24 23 26 27 26 26 28 28 27 31 33 31 30 29 32 49 53 52 60 74 78 77 70 71 77 80 81 87 90 95 100 100 100 100 100 100 97 99
17 21 21 34 52 42 41 67 66 48 42 32 25 25 24 25 27 28 27 28 30 31 33 32 30 31 50 54 50 56 64 72 73 75 71 74 80 80 85 90 92 97 100 100 100 100 100 99 99
19 25 26 32 43 56 32 56 76 73 58 33 24 22 26 28 28 28 29 28 27 28 29 33 32 31 49 52 49 52 62 67 71 78 80 72 79 82 85 88 89 94 99 99 100 100 99 100 100
23 29 29 22 55 44 52 72 73 52 55 40 34 25 27 29 31 32 30 29 29 29 30 33 36 34 50 46 44 47 56 64 71 77 86 80 76 77 84 86 89 93 98 99 100 100 100 100 100
26 29 51 30 65 52 51 75 63 58 53 43 33 24 27 27 30 32 29 31 31 30 31 32 35 39 49 44 44 44 52 64 70 77 77 80 79 74 80 84 90 96 100 100 100 100 100 100 100
27 42 30 49 53 71 80 62 50 44 50 44 41 25 27 29 28 32 31 32 32 32 33 32 37 42 45 44 44 48 53 65 70 77 78 85 79 76 80 86 97 100 98 96 95 100 100 100 100
21 27 39 64 52 63 76 73 65 47 54 50 41 41 32 29 29 33 34 33 36 35 34 34 37 46 45 45 46 52 56 66 69 79 82 88 86 80 84 92 100 93 92 93 90 95 99 100 99
34 36 48 52 62 74 85 71 66 59 57 52 41 40 41 41 38 41 38 38 38 38 34 37 44 45 46 50 54 58 60 66 71 82 85 92 99 90 91 98 97 87 84 85 87 89 95 98 100
27 31 39 60 47 58 74 76 38 60 60 45 50 46 44 47 50 47 45 43 43 41 38 41 46 47 55 58 61 64 62 66 72 85 88 98 100 96 98 96 90 82 82 81 84 88 88 92 97
Wind_Speed
18 12 3 4 4 5 4 6 4 3 5 16 15 14 15 13 4 4 23 23 23 19 19 30 24 22 12 10 9 4 5 5 8 12 16 19 20 20 21 23 21 20 19 19 17 17 19 21 24
14 5 3 2 5 4 3 4 18 11 14 10 14 13 11 7 10 5 13 29 25 23 21 25 24 19 21 11 10 5 3 5 6 8 12 16 18 19 20 18 17 17 17 17 16 17 19 22 24
4 5 4 4 5 4 3 9 4 13 9 7 5 11 6 9 14 5 18 21 27 30 29 27 26 22 16 17 12 8 4 2 5 7 10 14 17 20 20 20 18 15 14 16 15 16 20 23 24
2 6 5 6 8 9 4 12 4 1 11 13 6 8 8 18 7 12 16 18 30 32 32 27 26 25 25 20 16 10 5 2 4 8 11 13 15 16 18 11 6 11 14 15 12 17 23 24 25
6 4 7 6 11 4 8 8 20 9 8 13 7 9 7 9 9 17 20 29 35 36 34 32 27 22 19 19 17 14 6 0 3 7 10 13 14 15 12 6 8 13 19 20 16 21 23 25 25
5 4 5 6 6 10 5 11 12 14 11 11 11 8 7 20 15 16 29 28 35 36 38 36 33 21 20 16 13 12 9 4 4 8 11 13 13 12 9 7 14 17 21 19 19 21 25 26 24
7 5 6 7 6 5 11 4 12 12 14 15 8 8 5 26 26 22 27 30 33 35 38 40 36 30 21 20 17 13 7 2 6 8 11 13 12 11 9 11 21 23 21 18 18 21 24 24 23
5 5 4 5 3 5 7 19 13 12 16 5 7 7 4 15 24 26 34 33 36 37 38 41 39 35 28 24 23 16 17 13 2 9 11 13 13 13 12 14 19 21 22 20 17 21 22 21 20
4 5 3 4 5 6 4 13 19 16 18 22 16 14 10 17 28 33 31 34 35 35 41 43 41 38 33 28 26 22 21 17 14 3 8 13 14 14 15 19 20 23 21 19 18 16 22 21 19
6 5 6 3 6 13 10 13 8 11 17 16 14 16 19 25 28 27 26 26 29 31 32 36 38 37 40 36 29 25 24 20 17 14 6 11 17 17 20 20 23 25 21 19 20 22 18 23 20
6 6 10 15 17 18 18 17 6 13 16 12 11 9 15 22 22 21 21 23 25 27 30 32 35 35 38 37 34 29 26 23 20 18 16 5 16 20 22 22 24 23 22 20 20 23 26 23 21
12 13 8 9 9 11 20 20 22 18 13 11 11 13 17 19 19 19 21 23 24 29 32 33 33 35 34 36 35 33 28 26 20 23 18 13 5 18 21 24 27 27 25 23 23 24 24 23 20
25 16 18 17 18 16 19 18 14 15 10 13 15 17 15 17 19 22 22 23 25 28 31 32 35 36 32 35 37 34 31 26 22 20 19 19 10 7 24 22 26 28 27 24 23 22 24 23 20
8 19 10 9 11 9 15 7 5 6 5 10 11 10 13 16 17 21 25 26 25 28 30 29 32 34 33 33 34 33 30 27 23 22 20 20 14 6 13 26 29 29 29 26 24 21 24 22 21
8 15 9 8 2 5 8 10 4 3 5 9 8 8 11 15 23 21 21 24 25 27 28 30 30 32 33 30 31 32 29 27 27 25 23 20 16 13 6 20 29 30 28 26 25 21 22 21 19
6 6 5 3 7 4 5 1 3 6 10 8 8 7 7 10 15 17 19 22 24 26 29 29 29 30 30 30 27 29 30 27 25 26 25 23 18 16 8 6 24 28 30 30 28 26 26 25 23
9 4 6 8 6 2 6 4 2 4 8 6 6 5 5 5 12 13 16 18 21 24 27 30 30 29 29 29 28 24 28 29 27 28 27 26 22 19 14 3 14 23 25 31 29 27 30 27 23
1 2 4 4 4 7 7 5 3 3 6 4 2 2 3 3 3 9 13 15 17 20 24 28 29 27 29 30 29 27 24 26 26 30 27 26 25 21 19 9 3 14 23 28 26 21 29 25 20
5 3 2 4 4 5 4 5 4 3 3 3 2 1 0 2 5 7 9 12 15 18 22 27 30 28 28 33 31 29 24 26 26 29 28 27 25 24 21 16 6 7 16 21 23 21 24 25 17
7 6 6 3 6 6 1 2 3 5 5 5 5 4 4 3 4 4 6 9 12 14 18 23 26 26 24 28 30 26 23 22 21 23 26 28 25 24 24 20 15 8 7 17 22 20 20 19 25
3 6 5 1 2 5 3 5 5 6 4 5 5 5 5 6 3 2 4 5 7 10 14 18 22 22 20 25 28 27 24 23 21 27 29 30 28 25 23 23 17 13 8 2 18 22 23 17 25
4 3 3 1 1 2 2 4 5 6 8 6 6 5 6 4 2 1 3 5 6 8 10 14 17 19 19 21 25 26 24 20 23 22 25 28 29 27 24 25 21 14 12 8 7 22 23 25 18
3 3 1 1 3 2 2 1 6 3 5 7 7 7 5 4 2 1 2 3 5 7 8 10 13 17 16 16 21 24 25 24 25 23 23 24 26 29 25 25 23 19 14 12 4 9 22 24 26
5 4 5 4 3 2 2 3 6 4 6 4 5 5 6 5 4 2 2 2 5 8 9 10 11 14 14 14 17 21 22 24 26 26 22 25 26 28 28 27 24 21 17 14 9 3 13 23 20
8 5 3 4 4 5 1 2 10 5 8 7 7 6 7 7 5 5 3 4 6 8 10 11 12 13 11 13 17 19 21 22 23 25 23 24 27 30 29 29 25 23 18 14 12 7 3 19 23
3 3 4 3 3 6 5 6 6 6 7 6 6 6 6 5 5 6 5 4 5 9 10 12 13 13 9 13 16 19 19 19 20 20 23 21 22 25 25 24 22 21 19 17 13 9 5 4 22
1 4 3 2 1 2 3 7 10 5 7 6 6 5 7 8 6 7 7 5 7 10 10 11 11 9 7 12 15 17 18 18 19 19 22 21 21 20 20 20 21 20 18 18 14 10 8 5 9
1 5 2 3 3 5 6 6 6 5 8 7 7 8 7 6 6 7 10 6 8 11 10 10 9 4 8 12 15 16 17 17 18 18 21 22 20 19 19 20 17 19 18 19 16 12 9 7 5
1 1 3 3 4 4 3 7 8 7 7 7 8 7 6 6 6 7 10 8 10 11 8 11 3 5 8 12 14 14 15 15 17 19 20 21 18 17 17 17 15 20 20 20 19 15 11 10 8
3 4 4 3 3 3 3 7 4 8 8 7 8 7 6 5 6 8 8 9 10 10 9 6 3 6 9 12 13 12 14 16 16 19 19 21 16 14 15 13 17 21 21 20 20 17 13 12 10
Wind_Direction
340 341 19 52 59 63 41 15 6 24 59 52 63 74 87 41 2 59 326 350 1 2 11 16 14 36 40 52 63 70 95 122 135 147 151 150 150 152 150 148 142 138 132 127 128 128 129 130 133
340 354 57 74 74 62 67 19 31 26 121 98 46 49 47 68 22 52 1 356 18 18 24 26 18 36 45 47 37 31 70 110 127 152 158 155 156 156 149 146 145 142 132 125 126 132 136 138 139
11 48 73 74 46 36 44 356 302 45 37 60 85 40 35 347 40 24 347 3 21 25 29 22 29 34 55 44 52 34 34 87 135 148 157 149 154 151 147 139 134 137 134 118 121 138 142 142 140
19 24 38 66 77 30 60 1 308 172 47 39 79 60 92 27 45 19 10 9 35 32 32 25 24 30 30 27 42 50 44 29 147 151 151 148 152 151 150 152 180 174 161 176 144 149 147 144 140
47 59 53 75 66 49 29 33 50 69 77 38 68 73 79 41 60 39 23 29 34 36 34 31 24 19 36 6 9 45 68 47 196 189 170 172 170 172 179 193 178 167 147 138 143 152 145 140 138
41 88 77 72 75 41 53 32 63 70 78 105 62 84 49 24 15 30 28 30 35 35 31 28 28 23 14 23 355 2 45 100 197 210 192 188 183 192 204 195 158 146 151 145 150 156 145 145 139
101 73 116 138 127 48 13 99 33 44 54 39 85 79 32 18 29 42 26 29 33 35 28 25 24 25 24 21 23 17 346 21 168 206 202 203 205 207 202 179 159 147 150 148 157 161 148 156 148
98 89 85 44 73 67 59 69 58 50 32 41 39 40 32 8 35 49 34 28 29 30 27 24 21 23 22 18 15 15 34 23 191 188 215 222 217 205 207 186 172 163 161 157 160 166 155 158 162
73 60 58 119 111 141 166 83 66 79 80 68 66 72 54 46 46 45 35 31 29 26 24 21 21 19 20 18 15 16 17 24 26 28 216 219 223 225 200 193 181 165 156 152 151 172 161 164 165
71 76 49 31 102 103 78 77 75 90 74 68 69 56 46 49 45 43 36 30 29 24 23 21 21 18 17 16 14 11 11 18 17 17 337 220 230 233 210 198 192 180 174 173 175 179 179 171 169
21 91 89 69 83 81 85 67 63 86 66 67 74 58 42 46 46 45 40 38 32 28 27 22 21 21 16 14 11 6 4 8 8 17 7 282 236 234 225 206 197 200 191 189 182 183 186 178 176
72 59 87 62 53 73 73 76 62 70 83 73 69 69 58 47 37 34 36 37 34 31 32 25 22 21 17 14 12 8 6 4 8 10 358 358 273 241 230 218 206 201 202 192 199 189 184 180 178
83 84 84 93 91 84 81 71 77 70 75 76 66 55 52 51 46 49 46 43 38 35 34 29 23 22 17 15 11 9 6 2 4 358 4 1 1 233 236 226 211 210 205 208 206 198 188 179 178
126 89 83 72 82 65 82 27 72 30 73 68 61 50 45 44 45 48 45 41 36 37 34 29 25 20 19 14 13 10 5 360 3 357 3 3 358 345 207 231 217 217 210 211 211 204 196 183 181
116 88 72 29 144 155 104 37 32 324 85 72 58 45 45 37 49 44 43 43 38 36 33 31 26 20 18 14 12 9 7 4 358 356 2 4 11 351 255 219 227 223 218 216 217 213 210 195 185
45 52 30 346 20 32 76 141 324 326 84 55 50 45 43 33 51 58 48 35 33 29 29 26 24 23 18 15 10 7 6 6 355 359 359 4 10 360 339 223 219 224 229 220 221 218 210 213 192
21 34 8 333 20 64 79 171 231 7 84 72 53 48 58 29 49 61 58 46 29 25 22 22 18 20 18 14 13 6 4 6 4 359 356 3 6 7 5 8 217 231 220 221 218 215 214 208 189
211 28 301 268 325 53 86 131 84 18 100 124 119 74 54 38 342 60 60 53 40 28 21 17 15 17 17 11 10 8 2 4 8 2 350 1 6 6 9 23 223 224 236 212 210 225 190 190 183
135 127 339 300 279 99 127 134 172 224 133 160 206 277 323 338 346 51 68 51 39 29 22 19 13 14 15 10 6 4 357 0 3 359 353 3 3 3 11 16 27 212 243 228 221 218 180 179 187
63 41 351 335 6 83 107 197 264 223 218 210 211 243 261 287 315 10 52 55 45 31 24 19 14 11 13 10 6 3 0 356 357 359 354 3 0 358 6 13 16 15 306 225 200 189 170 176 187
35 44 331 156 18 39 114 308 252 258 256 234 244 251 252 245 280 320 45 42 43 36 24 18 14 7 11 10 4 3 9 6 355 2 358 3 358 357 3 10 14 10 357 274 207 200 184 177 195
30 334 357 65 146 237 119 281 267 231 228 222 236 238 253 245 275 178 88 32 21 20 18 13 11 6 8 14 5 7 4 356 351 354 358 359 359 356 0 5 8 7 2 10 192 208 196 188 176
269 332 21 88 101 47 232 47 265 310 258 243 235 231 233 236 227 158 98 42 34 12 359 3 4 4 6 14 4 5 3 2 357 356 355 0 355 359 360 358 1 360 4 359 21 204 208 201 192
312 28 45 60 83 3 226 119 280 213 218 228 235 224 207 215 228 246 246 25 22 10 358 346 352 357 0 8 4 357 0 360 0 356 353 356 358 355 0 355 0 355 359 358 347 307 209 215 198
22 36 352 348 2 237 257 36 243 254 239 230 247 258 215 224 232 264 280 333 349 351 346 347 342 345 356 360 359 351 354 358 358 0 351 354 356 353 352 352 356 354 358 354 341 323 249 218 207
61 97 127 276 279 279 312 233 260 230 267 254 273 220 233 246 250 260 270 300 330 338 340 343 345 341 353 351 349 346 348 354 357 359 357 357 353 352 352 348 352 357 3 357 346 334 307 229 217
114 48 179 187 306 324 268 292 306 257 269 265 271 244 249 244 251 263 299 305 332 330 335 334 344 344 339 341 342 341 346 351 357 356 357 356 356 351 347 352 358 2 358 353 346 342 323 282 224
29 164 35 17 356 303 291 285 242 275 261 264 271 266 273 281 282 309 314 301 327 333 321 328 336 325 341 341 340 343 344 352 357 359 356 355 356 351 357 4 6 359 6 356 359 350 344 315 270
18 359 67 137 141 200 295 270 219 229 240 233 254 277 274 290 275 281 301 302 324 327 321 327 329 339 339 340 340 349 350 353 359 3 358 356 357 359 3 4 7 8 7 358 357 359 347 342 303
159 201 152 121 247 225 159 271 245 229 236 235 266 282 280 269 278 286 295 309 317 335 332 329 334 340 344 343 342 353 351 353 359 360 2 355 2 8 17 20 14 11 10 2 359 357 349 340 327